Theta_e
303 303 302 302 301 300 300 300 300 299 300 299 299 300 300 300 298 297 296 295 294 294 296 293 290 289 288 286 286 286 286 285 285 285 285 285 286 286 287 288 288 289 290
304 303 303 302 301 300 300 300 299 299 300 299 299 299 300 300 297 296 296 295 294 295 295 292 290 287 287 286 286 286 285 285 285 284 285 286 288 288 288 289 288 291 292
304 303 302 301 301 300 300 299 299 299 299 299 299 299 300 299 297 296 296 295 294 295 294 292 289 287 287 287 286 287 285 285 285 284 286 288 288 289 290 291 291 292 294
304 303 302 302 301 300 300 299 298 299 299 299 299 299 300 298 296 296 295 294 294 294 294 292 289 288 288 288 287 287 286 287 287 287 287 289 290 291 291 292 293 295 295
304 303 302 302 301 300 299 299 298 299 298 298 298 299 299 297 296 296 296 295 293 294 294 292 290 289 288 287 288 288 287 287 287 289 290 289 291 292 292 293 293 294 294
304 304 303 301 300 299 299 298 298 299 298 298 298 299 298 297 296 295 296 294 293 294 294 293 290 289 289 289 290 289 289 289 288 289 290 291 293 293 294 295 294 295 296
304 304 303 301 300 299 299 298 299 299 298 298 298 299 298 297 296 295 295 294 293 293 294 293 291 290 290 290 291 290 289 290 290 289 290 291 293 294 294 294 295 294 294
304 303 303 301 300 299 298 298 299 298 298 297 298 298 298 297 296 295 295 294 293 293 294 293 291 290 290 291 289 290 290 290 290 289 289 292 294 294 294 294 293 293 292
305 304 302 301 300 299 298 299 299 298 298 297 297 297 297 296 296 295 295 295 293 292 294 293 292 291 291 292 290 290 291 291 290 289 291 292 293 294 293 292 291 291 291
305 304 302 301 300 299 299 299 299 298 297 297 297 297 297 295 295 295 295 295 293 292 294 293 292 292 291 292 292 290 290 291 291 290 290 291 291 292 291 290 290 290 289
305 303 302 301 300 300 299 299 298 298 297 297 296 297 297 295 294 295 295 295 294 293 292 294 293 292 291 292 292 290 290 290 290 290 289 289 290 290 289 289 289 290 289
303 302 301 300 299 299 299 298 298 297 297 297 296 296 297 295 293 295 295 295 294 292 291 293 293 292 291 291 291 290 289 290 290 290 289 288 287 287 287 288 288 289 289
300 300 300 299 299 299 298 298 298 298 297 297 296 296 296 295 292 294 295 295 294 293 291 292 293 291 290 290 290 289 289 289 290 289 288 288 286 286 286 286 286 286 286
299 299 299 299 299 298 298 298 298 298 298 298 297 296 295 295 292 293 294 295 294 294 291 291 293 292 291 290 289 289 289 288 287 288 287 286 285 285 285 284 286 286 287
297 298 298 299 299 298 298 298 298 298 298 297 297 297 295 295 294 291 294 294 294 293 292 290 292 292 291 291 290 288 288 288 286 286 286 285 285 285 285 284 286 286 285
295 295 297 298 298 298 297 297 297 297 297 296 296 296 295 295 293 291 292 294 294 293 292 290 290 293 292 291 290 289 287 287 287 285 285 285 285 285 285 285 285 286 285
296 294 295 296 297 297 297 297 297 297 296 296 295 295 295 295 294 291 290 293 294 294 293 291 290 291 293 292 291 290 287 287 286 286 286 286 285 285 285 285 285 286 286
295 295 294 294 295 297 297 297 297 296 296 296 296 295 295 295 294 292 289 290 293 294 294 293 291 290 290 291 291 291 289 287 286 286 287 287 287 287 286 286 286 287 287
294 295 294 294 296 299 297 295 295 295 295 295 295 295 295 294 294 293 289 289 290 293 294 294 292 290 290 290 289 290 291 289 287 286 287 287 287 287 287 288 288 287 286
289 292 291 295 298 299 299 297 295 295 297 297 296 295 294 294 294 294 293 291 289 290 293 294 293 291 290 290 289 288 291 290 289 287 287 287 288 288 288 288 287 286 285
286 288 290 292 293 294 294 294 296 295 297 297 296 295 294 293 294 294 294 293 291 289 290 292 293 293 290 289 290 288 289 292 291 289 288 287 287 287 287 288 287 287 287
285 284 286 289 291 292 293 293 296 297 296 297 297 295 294 293 293 293 294 293 292 290 289 290 291 293 292 289 289 289 288 289 291 291 289 288 288 287 287 287 287 286 286
284 283 285 287 290 290 291 292 295 295 294 297 297 293 294 293 294 293 293 293 293 291 288 288 289 292 292 290 289 289 288 287 288 290 290 289 288 288 288 287 283 283 283
281 282 282 285 288 289 290 291 294 295 294 295 294 293 294 293 292 294 293 293 293 292 289 290 288 290 292 291 289 289 289 288 287 287 287 288 289 288 288 284 282 282 282
279 279 278 281 285 286 288 289 292 291 291 294 293 290 290 291 292 293 293 293 293 293 291 293 287 288 290 291 290 288 288 288 287 287 286 286 287 287 285 282 282 281 281
277 277 277 279 282 286 285 286 288 288 289 290 290 290 290 290 291 291 292 292 292 293 290 294 289 287 289 290 290 289 288 288 287 286 286 285 285 284 283 282 282 281 281
Wind_Speed
29 30 32 33 32 31 28 25 22 20 18 17 15 13 12 12 15 18 22 26 30 34 35 33 32 27 27 27 28 29 32 36 40 45 44 38 38 39 36 30 29 27 30
27 29 32 32 33 31 29 26 23 20 19 17 16 14 12 13 15 18 22 26 30 34 33 32 31 26 26 26 27 28 29 25 25 37 36 38 38 35 34 34 31 22 25
28 30 31 33 33 32 29 26 23 22 20 18 16 14 13 13 14 18 22 26 30 32 32 30 28 23 26 25 26 26 25 22 23 27 36 33 37 37 35 27 23 19 14
28 30 32 32 32 30 28 26 25 22 20 18 16 14 13 13 14 17 22 26 28 30 29 28 24 22 24 22 22 22 21 21 24 27 31 36 36 35 32 28 25 12 14
28 31 33 31 31 29 29 28 26 23 20 18 17 15 13 13 14 17 21 26 28 30 29 28 21 17 20 16 18 20 19 22 26 29 35 38 38 30 27 27 18 9 6
30 32 32 31 32 31 30 29 26 23 21 19 18 16 13 12 13 16 21 25 27 30 31 28 21 16 17 14 13 16 18 22 26 28 32 32 29 24 22 20 18 12 3
33 33 32 33 33 32 30 30 27 23 21 20 19 17 13 13 13 15 20 23 25 28 30 29 23 16 16 16 13 14 17 18 19 23 29 26 22 16 15 17 18 12 3
36 36 34 35 33 32 32 31 26 24 22 20 20 17 15 14 13 14 17 22 24 26 28 28 24 18 14 16 16 17 18 19 20 22 21 20 16 14 12 15 12 5 4
38 38 36 35 34 33 34 30 27 24 23 21 19 18 16 14 13 13 16 19 22 24 26 25 22 18 12 13 14 15 15 15 15 15 16 16 15 14 13 9 1 5 6
39 39 35 35 34 34 31 29 27 24 21 21 21 20 18 15 14 13 14 17 20 22 23 24 21 17 12 13 13 10 13 16 19 17 13 12 12 12 10 7 4 2 12
37 34 35 35 34 32 30 28 26 24 23 23 21 21 20 17 15 13 13 15 18 21 21 21 19 15 12 12 13 10 10 13 15 17 13 10 11 11 11 8 3 2 1
35 34 34 33 33 32 30 28 28 26 25 24 23 23 21 20 16 14 12 14 16 19 19 20 20 17 14 12 10 9 8 10 11 12 9 8 11 13 13 11 6 3 3
30 31 31 31 32 31 31 31 30 28 26 25 24 23 22 21 18 15 12 13 14 17 17 17 19 17 15 12 10 8 6 7 7 6 5 8 10 11 10 10 9 8 7
25 30 31 31 32 31 31 31 30 29 27 26 25 25 23 23 20 17 14 13 13 14 16 15 16 16 15 13 10 6 4 3 3 4 5 7 8 8 8 11 12 16 16
19 24 28 31 33 33 33 31 31 30 28 25 23 22 22 24 20 18 16 14 12 12 13 13 13 13 12 12 9 5 4 5 5 6 7 7 7 8 8 11 12 17 24
19 22 26 30 32 33 33 33 32 31 31 27 26 25 23 23 22 20 17 15 13 11 11 10 9 8 8 8 8 6 6 7 7 7 8 7 8 9 7 13 17 22 27
17 20 24 27 30 32 32 33 36 34 33 31 31 28 26 24 23 22 20 17 15 13 10 9 9 7 5 6 6 5 5 7 7 6 7 8 8 10 11 17 20 24 27
17 18 23 27 28 27 30 35 36 36 34 31 32 31 29 28 27 25 23 22 20 16 12 9 8 6 4 3 5 4 3 6 8 7 6 8 11 10 12 16 20 22 24
22 22 23 24 22 26 32 35 34 33 30 29 28 28 29 30 30 28 28 28 22 19 16 11 8 7 4 3 1 3 3 4 6 7 9 10 10 12 16 16 15 14 20
22 25 29 27 29 30 31 34 34 32 27 28 28 29 27 29 34 35 34 32 27 22 20 16 11 9 6 5 4 4 5 6 6 7 9 12 16 16 16 15 13 17 21
25 25 28 28 29 31 33 34 32 30 28 26 27 27 28 31 33 36 36 35 30 24 22 19 15 12 10 8 7 5 6 8 9 10 10 12 15 16 15 15 17 21 25
25 25 25 27 26 28 30 32 30 29 27 27 28 27 26 29 32 36 36 36 30 26 23 21 18 15 13 10 9 8 8 9 11 13 14 15 16 16 15 15 17 19 20
28 27 26 26 26 26 28 31 29 28 30 29 29 30 26 30 30 34 36 34 32 29 26 25 22 20 18 15 12 11 10 9 10 12 13 15 17 17 17 17 18 19 20
31 27 27 29 26 27 28 28 29 29 32 27 29 30 29 29 31 30 32 34 33 31 29 28 25 23 21 18 15 14 14 14 13 13 14 15 17 19 20 19 18 17 16
26 27 23 23 21 25 24 26 28 29 29 28 28 27 25 24 24 28 29 32 34 33 33 30 27 26 24 21 18 16 15 15 16 16 17 17 18 20 20 19 19 19 18
31 33 33 29 28 20 20 26 26 27 27 26 27 26 24 22 22 24 27 27 32 37 34 32 29 29 26 24 22 20 18 18 18 18 19 20 20 21 20 18 17 16 16
Wind_Direction
230 232 235 238 238 240 244 250 259 262 263 266 268 268 267 282 299 311 320 326 326 325 327 332 327 321 320 325 325 320 311 303 289 301 304 312 309 307 308 304 301 297 275
235 237 239 239 239 241 243 248 255 257 258 261 262 261 266 282 299 313 321 326 327 326 334 330 328 330 333 331 332 326 318 311 304 298 312 316 315 315 308 301 297 289 273
238 240 240 239 238 239 242 246 252 250 252 254 256 256 264 281 300 314 322 327 328 331 334 331 332 334 331 335 340 335 326 318 310 306 311 321 324 323 322 313 291 287 268
242 242 240 238 238 240 242 244 245 244 247 250 252 250 261 281 300 314 322 327 331 333 333 334 332 336 330 337 347 337 329 324 320 316 320 319 324 330 327 321 328 295 287
247 244 242 239 238 237 238 239 237 240 243 245 247 247 259 280 301 314 323 328 332 333 339 337 329 328 326 339 346 339 333 330 321 324 327 321 331 336 332 337 328 325 272
247 246 241 236 234 234 234 233 231 235 238 241 243 245 257 277 298 313 323 330 333 336 337 339 331 315 324 331 339 332 330 324 314 322 327 332 335 340 343 343 339 337 307
252 245 239 234 232 231 229 226 228 232 236 239 240 242 252 273 292 310 321 329 333 337 337 337 337 316 314 315 322 319 322 327 322 315 325 332 328 333 342 337 325 326 273
248 241 235 231 229 227 224 223 225 229 234 236 237 241 250 267 285 303 318 327 333 337 340 339 336 324 315 314 316 323 329 331 325 330 333 331 327 323 324 319 317 305 166
242 239 233 228 225 222 220 221 224 227 230 234 236 242 248 261 278 296 314 324 331 336 341 340 340 326 314 315 316 331 329 336 345 344 340 339 343 345 349 336 270 176 116
242 238 232 227 223 220 219 220 223 226 230 232 237 242 249 255 268 284 304 318 327 333 343 344 342 336 321 306 312 329 341 353 352 347 341 348 5 6 355 351 309 184 117
247 237 226 222 220 217 218 219 221 225 229 233 237 241 247 252 261 273 293 312 324 332 343 346 345 347 341 310 307 312 338 352 351 344 339 356 18 26 30 23 0 208 162
245 228 218 216 214 213 215 217 221 225 229 232 236 238 246 248 252 263 283 303 318 331 343 348 348 3 346 333 318 320 334 335 345 340 341 19 46 52 55 49 42 46 96
236 222 216 214 213 213 216 219 223 226 230 233 236 239 243 245 248 255 271 292 310 325 339 350 353 2 357 345 329 329 323 322 339 344 26 47 57 60 71 79 80 83 107
228 221 216 215 216 217 221 225 229 232 233 235 235 239 237 242 243 250 260 278 297 317 334 348 353 3 7 359 348 341 336 10 34 43 60 60 62 73 85 102 103 114 117
249 239 228 222 222 223 226 231 235 239 242 245 247 246 240 239 242 246 253 266 284 306 323 340 352 4 5 6 7 17 43 64 73 88 81 77 86 90 102 122 121 123 119
250 251 241 234 232 231 232 236 240 243 243 244 243 238 236 236 232 239 243 253 265 281 305 323 331 356 18 15 25 36 76 84 88 91 95 95 99 104 115 109 119 116 115
254 249 249 244 238 237 239 242 244 244 246 244 242 240 238 240 237 236 238 242 251 262 278 302 312 335 357 36 34 48 83 99 89 86 101 101 108 116 133 125 126 125 120
273 252 248 246 243 243 246 248 248 246 243 246 246 242 239 234 234 234 236 237 238 245 254 270 293 304 321 5 53 57 96 120 117 118 111 119 120 122 139 139 140 140 139
271 264 256 246 241 242 247 250 249 247 246 249 249 244 239 234 231 232 235 240 238 239 244 248 263 274 275 279 80 83 107 135 140 148 138 125 124 139 150 151 148 145 147
272 261 260 242 238 239 242 245 248 245 244 247 246 243 238 233 228 229 231 237 235 233 237 239 243 252 246 236 213 156 141 149 149 152 153 145 141 143 146 147 148 147 149
280 272 262 250 239 237 240 241 242 243 242 245 249 248 244 241 236 233 233 235 233 232 234 235 234 240 236 226 216 189 165 159 160 156 157 155 154 154 154 148 144 146 148
276 275 266 256 246 244 240 242 241 243 247 245 249 248 243 241 237 237 235 236 234 233 232 233 232 233 236 224 213 195 180 171 167 163 162 161 157 155 155 152 149 150 153
269 268 269 263 254 249 245 244 239 239 244 242 244 250 242 242 238 236 234 231 230 229 227 232 226 224 228 223 207 196 182 175 172 171 169 168 164 159 160 159 156 154 156
268 271 271 262 254 253 249 247 242 244 247 241 244 250 249 241 242 238 235 229 225 221 223 231 227 223 223 224 213 200 196 183 174 173 170 171 169 164 162 162 159 158 159
263 266 268 262 255 256 255 256 246 248 248 243 245 249 249 243 239 240 233 227 222 219 220 223 227 221 218 217 216 203 195 190 180 176 173 171 174 171 168 167 167 164 166
263 258 260 252 251 242 255 255 253 252 249 246 245 246 248 245 239 236 237 224 218 218 218 219 224 221 216 213 210 204 196 193 186 182 180 175 177 177 174 174 174 174 173